This demonstration page uses our WeatherBlox Daily Observations layout. Learn more.

Left ArrowRight Arrow

Hourly Observations for April 18, 2022

Temp ( °F °C ) Dew Point ( °F °C ) Humidity (%) Winds ( mph kmh ) Pressure ( in mb ) Visibility ( mi km ) Precip ( " mm )
12:53 am 00:53 Clear 48 8.9 38 3.3 68 68 NW 5 7 30.03 1017 10 16 0.00 0.00
1:53 am 01:53 Clear 47 8.3 38 3.3 71 71 NW 6 9 30.02 1017 10 16 0.00 0.00
2:53 am 02:53 Clear 44 6.7 37 2.8 76 76 Calm 30.01 1016 10 16 0.00 0.00
3:53 am 03:53 Clear 43 6.1 37 2.8 80 80 Calm 30.01 1016 10 16 0.00 0.00
4:53 am 04:53 Clear 43 6.1 36 2.2 76 76 NNE 6 9 30.00 1016 10 16 0.00 0.00
5:53 am 05:53 Clear 40 4.4 35 1.7 83 83 Calm 30.00 1016 10 16 0.00 0.00
6:53 am 06:53 Sunny 42 5.6 36 2.2 79 79 Calm 30.01 1016 10 16 0.00 0.00
7:53 am 07:53 Sunny 47 8.3 37 2.8 69 69 Calm 30.03 1017 10 16 0.00 0.00
8:53 am 08:53 Sunny 50 10 36 2.2 59 59 SSE 8 13 30.02 1017 10 16 0.00 0.00
9:53 am 09:53 Sunny 51 10.6 35 1.7 54 54 S 8 13 30.01 1016 10 16 0.00 0.00
10:53 am 10:53 Sunny 52 11.1 35 1.7 53 53 S 14 22 30.01 1016 10 16 0.00 0.00
11:53 am 11:53 Sunny 54 12.2 36 2.2 51 51 SSW 7 11 30.01 1016 10 16 0.00 0.00
12:53 pm 12:53 Sunny 58 14.4 38 3.3 48 48 S 10 17 29.99 1016 10 16 0.00 0.00
1:53 pm 13:53 Partly Cloudy 62 16.7 40 4.4 44 44 VRB 3 6 29.96 1015 10 16 0.00 0.00
2:53 pm 14:53 Cloudy 64 17.8 43 6.1 46 46 S 17 28 29.91 1013 10 16 0.00 0.00
3:53 pm 15:53 Cloudy 65 18.3 43 6.1 45 45 SSE 21 33 29.87 1012 10 16 0.00 0.00
4:53 pm 16:53 Cloudy 64 17.8 44 6.7 48 48 SSE 24 39 29.84 1010 10 16 0.00 0.00
5:53 pm 17:53 Cloudy 64 17.8 45 7.2 50 50 S 29 46 29.81 1010 10 16 0.00 0.00
6:53 pm 18:53 Cloudy 63 17.2 44 6.7 50 50 S 31 50 29.79 1009 10 16 0.00 0.00
7:53 pm 19:53 Cloudy with Light Rain 60 15.6 47 8.3 62 62 S 26 43 29.80 1009 10 16 0.00 0.00
8:53 pm 20:53 Cloudy with Light Rain 59 15 47 8.3 64 64 S 24 39 29.82 1010 10 16 0.00 0.00
9:53 pm 21:53 Cloudy 59 15 48 8.9 67 67 S 24 39 29.83 1010 10 16 0.00 0.00
10:53 pm 22:53 Cloudy with Rain 55 12.8 48 8.9 77 77 WSW 12 19 29.87 1011 6 10 0.00 0.00
11:00 pm 23:00 Cloudy with Heavy Rain 53 11.7 48 8.9 83 83 SW 8 13 29.87 1012 2 3 0.06 1.52
11:11 pm 23:11 Cloudy with Rain 52 11.1 48 8.9 86 86 SW 8 13 29.89 1012 2 3 0.17 4.32
11:21 pm 23:21 Cloudy with Rain 53 11.7 48 8.9 83 83 SSW 8 13 29.88 1012 4 6 0.19 4.83
11:33 pm 23:33 Cloudy with Heavy Rain 52 11.1 47 8.3 83 83 SW 10 17 29.90 1012 3 4 0.25 6.35
11:43 pm 23:43 Cloudy with Light Rain 52 11.1 48 8.9 86 86 SSW 10 17 29.87 1011 7 11 0.28 7.11
11:53 pm 23:53 Cloudy 54 12.2 47 8.3 77 77 SSW 10 17 29.86 1011 10 16 0.28 7.11

Powered by AerisWeather